Chicago Executive, IL

9:37 AM CST on December 09, 2019 (GMT -0600)
Chicago Executive

Weather History for KPWK - October, 2019

Change the Weather History Date:

Saturday, October 19, 2019

  Actual Average Record
Temperature  
Mean Temperature 56 °F 51 °F  
Max Temperature 69 °F 61 °F 76 °F (2000)
Min Temperature 43 °F 42 °F 30 °F (1996)
Degree Days  
Heating Degree Days 9 14  
Month to date heating degree days 192 214  
Since 1 July heating degree days 199 326  
Cooling Degree Days 0 0  
Month to date cooling degree days 13 11  
Year to date cooling degree days 996 789  
Growing Degree Days 6 (Base 50)    
Moisture  
Dew Point 42 °F    
Average Humidity 60    
Maximum Humidity 76    
Minimum Humidity 40    
Precipitation  
Precipitation T in 0.10 in 0.27 in (2011)
Month to date precipitation 2.31 1.86  
Year to date precipitation 39.00 27.55  
Sea Level Pressure  
Sea Level Pressure 29.81 in    
Wind  
Wind Speed 6 mph ()    
Max Wind Speed 18 mph    
Max Gust Speed 23 mph    
Visibility 10.0 miles    
Events      
T = Trace of Precipitation, MM = Missing Value Source: Averaged Metar Reports

Daily Weather History Graph

Daily Weather History Graph

Search for Another Location

Airport or City:

Astronomy

Oct. 19, 2019 Rise Set
Actual Time 7:08 AM CDT 6:03 PM CDT
Civil Twilight 6:40 AM CDT 6:32 PM CDT
Nautical Twilight 6:07 AM CDT 7:04 PM CDT
Astronomical Twilight 5:35 AM CDT 7:37 PM CDT
Moon 10:08 PM CDT (10/19) 12:45 PM CDT (10/19)
Length of Visible Light 11h 52m
Length of Day
10h 55m
Waning Gibbous, 69% of the Moon is Illuminated
Oct 19
Waning Gibbous
Oct 21
Last Quarter
Oct 27
New
Nov 4
First Quarter
Nov 12
Full

Hourly Weather History & Observations

Time (CDT) Temp. Windchill Dew Point Humidity Pressure Visibility Wind Dir Wind Speed Gust Speed Precip Events Conditions
12:52 AM 46.0 °F 42.5 °F 37.9 °F 73% 29.90 in 10.0 mi SSE 6.9 mph - N/A   Clear
1:52 AM 48.0 °F - 39.0 °F 71% 29.89 in 10.0 mi SSE 9.2 mph - N/A   Clear
2:52 AM 46.9 °F - 39.0 °F 74% 29.89 in 10.0 mi South 5.8 mph - N/A   Clear
3:52 AM 45.0 °F 42.6 °F 37.0 °F 74% 29.89 in 10.0 mi SSE 4.6 mph - N/A   Clear
4:52 AM 45.0 °F 43.5 °F 37.9 °F 76% 29.89 in 10.0 mi SSE 3.5 mph - N/A   Clear
5:52 AM 46.0 °F 42.5 °F 39.0 °F 76% 29.89 in 10.0 mi SSE 6.9 mph - N/A   Clear
6:52 AM 46.9 °F - 39.0 °F 74% 29.88 in 10.0 mi South 6.9 mph - N/A   Clear
7:52 AM 46.9 °F - 39.0 °F 74% 29.88 in 10.0 mi SSE 6.9 mph - N/A   Clear
8:52 AM 52.0 °F - 41.0 °F 66% 29.87 in 10.0 mi South 9.2 mph - N/A   Clear
9:52 AM 55.9 °F - 41.0 °F 57% 29.85 in 10.0 mi South 12.7 mph - N/A   Clear
10:52 AM 60.1 °F - 42.1 °F 51% 29.83 in 10.0 mi South 11.5 mph - N/A   Clear
11:52 AM 63.0 °F - 42.1 °F 46% 29.81 in 10.0 mi South 11.5 mph - N/A   Clear
12:52 PM 66.0 °F - 44.1 °F 45% 29.78 in 10.0 mi South 12.7 mph - N/A   Clear
1:52 PM 66.9 °F - 44.1 °F 44% 29.74 in 10.0 mi South 11.5 mph - N/A   Clear
2:52 PM 69.1 °F - 44.1 °F 40% 29.73 in 10.0 mi South 10.4 mph - N/A   Clear
3:52 PM 68.0 °F - 43.0 °F 40% 29.73 in 10.0 mi South 11.5 mph - N/A   Clear
4:52 PM 66.9 °F - 42.1 °F 40% 29.74 in 10.0 mi South 4.6 mph - N/A   Clear
5:52 PM 63.0 °F - 43.0 °F 48% 29.74 in 10.0 mi South 5.8 mph - N/A   Scattered Clouds
6:52 PM 64.0 °F - 42.1 °F 45% 29.74 in 10.0 mi Calm Calm - N/A   Overcast
7:52 PM 60.1 °F - 46.9 °F 62% 29.75 in 10.0 mi Calm Calm - N/A   Overcast
8:52 PM 60.1 °F - 46.0 °F 60% 29.75 in 10.0 mi Calm Calm - N/A   Overcast
9:52 PM 57.9 °F - 48.0 °F 70% 29.75 in 10.0 mi Calm Calm - N/A   Overcast
10:52 PM 60.1 °F - 48.0 °F 64% 29.75 in 10.0 mi Calm Calm - 0.00 in   Overcast
11:52 PM 59.0 °F - 48.9 °F 69% 29.77 in 10.0 mi WNW 4.6 mph - N/A   Overcast